When you browse on this site, cookies collect data to enhance your experience and personalize the content and advertising you see.
Visit our Privacy Policy to learn more. By continuing to use the site, you agree to this use of cookies and data.
  • En España
  • Lista de países
  • Para 7 días
  • Temperatura del agua
  • Mapa Satelital
  • El tiempo en el mapa
  • Informadores
  • user-avatar
    Iniciar sesión

    Tiempo cada hora Buenos Aires

    Hoy, 17 Diciembre, Lunes

    Tiempo Temperatura Precipitaciones Viento Presión Humedad
    00:00 +26°C° 3.9 mm 3 mps 755 mmHg 84%
    01:00 +25°C° 3.9 mm 3 mps 755 mmHg 88%
    02:00 +25°C° 0 mm 4 mps 754 mmHg 92%
    03:00 +25°C° 1.4 mm 3 mps 754 mmHg 93%
    04:00 +25°C° 1.4 mm 3 mps 754 mmHg 93%
    05:00 +24°C° 1.4 mm 2 mps 754 mmHg 94%
    06:00 +26°C° 0.3 mm 3 mps 755 mmHg 88%
    07:00 +27°C° 0.3 mm 3 mps 755 mmHg 83%
    08:00 +29°C° 0.3 mm 3 mps 756 mmHg 77%
    09:00 +29°C° 0.2 mm 4 mps 756 mmHg 74%
    10:00 +29°C° 0.2 mm 6 mps 757 mmHg 71%
    11:00 +29°C° 0.2 mm 7 mps 757 mmHg 67%
    12:00 +29°C° 0 mm 8 mps 757 mmHg 64%
    13:00 +29°C° 0 mm 8 mps 757 mmHg 60%
    14:00 +29°C° 0 mm 9 mps 757 mmHg 56%
    15:00 +27°C° 0 mm 9 mps 758 mmHg 57%
    16:00 +26°C° 0 mm 8 mps 758 mmHg 59%
    17:00 +23°C° 0 mm 8 mps 759 mmHg 61%
    18:00 +22°C° 0 mm 8 mps 759 mmHg 63%
    19:00 +21°C° 0 mm 8 mps 760 mmHg 65%
    20:00 +20°C° 0 mm 8 mps 760 mmHg 67%
    21:00 +20°C° 0 mm 8 mps 761 mmHg 69%
    22:00 +18°C° 0 mm 8 mps 761 mmHg 71%
    23:00 +18°C° 0 mm 7 mps 762 mmHg 72%

    Mañana, 18 Diciembre, Martes

    Tiempo Temperatura Precipitaciones Viento Presión Humedad
    00:00 +18°C° 0 mm 7 mps 761 mmHg 74%
    01:00 +18°C° 0 mm 7 mps 761 mmHg 75%
    02:00 +18°C° 0 mm 7 mps 761 mmHg 76%
    03:00 +18°C° 0.1 mm 7 mps 761 mmHg 77%
    04:00 +18°C° 0.1 mm 7 mps 761 mmHg 78%
    05:00 +18°C° 0.1 mm 7 mps 762 mmHg 78%
    06:00 +18°C° 0.1 mm 7 mps 762 mmHg 78%
    07:00 +18°C° 0.1 mm 7 mps 762 mmHg 78%
    08:00 +20°C° 0.1 mm 7 mps 763 mmHg 78%
    09:00 +20°C° 0.1 mm 7 mps 763 mmHg 76%
    10:00 +21°C° 0.1 mm 7 mps 762 mmHg 74%
    11:00 +22°C° 0.1 mm 7 mps 762 mmHg 72%
    12:00 +22°C° 0.1 mm 6 mps 762 mmHg 72%
    13:00 +22°C° 0.1 mm 6 mps 762 mmHg 72%
    14:00 +22°C° 0.1 mm 6 mps 762 mmHg 72%
    15:00 +22°C° 0 mm 6 mps 762 mmHg 72%
    16:00 +22°C° 0 mm 6 mps 762 mmHg 73%
    17:00 +21°C° 0 mm 6 mps 761 mmHg 73%
    18:00 +21°C° 0 mm 5 mps 761 mmHg 76%
    19:00 +20°C° 0 mm 5 mps 762 mmHg 78%
    20:00 +20°C° 0 mm 4 mps 762 mmHg 80%
    21:00 +20°C° 0 mm 4 mps 761 mmHg 81%
    22:00 +20°C° 0 mm 4 mps 761 mmHg 82%
    23:00 +20°C° 0 mm 4 mps 761 mmHg 83%

    Pasado mañana, 19 Diciembre, Miércoles

    Tiempo Temperatura Precipitaciones Viento Presión Humedad
    00:00 +20°C° 0 mm 4 mps 761 mmHg 84%
    01:00 +20°C° 0 mm 3 mps 760 mmHg 85%
    02:00 +20°C° 0 mm 3 mps 760 mmHg 86%
    03:00 +20°C° 0 mm 3 mps 760 mmHg 87%
    04:00 +20°C° 0 mm 2 mps 759 mmHg 87%
    05:00 +20°C° 0 mm 2 mps 759 mmHg 88%
    06:00 +21°C° 0 mm 2 mps 759 mmHg 85%
    07:00 +21°C° 0 mm 2 mps 759 mmHg 83%
    08:00 +23°C° 0 mm 2 mps 759 mmHg 80%
    09:00 +24°C° 0 mm 2 mps 759 mmHg 76%
    10:00 +25°C° 0 mm 3 mps 758 mmHg 71%
    11:00 +26°C° 0 mm 3 mps 758 mmHg 67%
    12:00 +27°C° 0 mm 2 mps 757 mmHg 65%
    13:00 +28°C° 0 mm 2 mps 757 mmHg 63%
    14:00 +29°C° 0 mm 2 mps 756 mmHg 60%
    15:00 +29°C° 0 mm 2 mps 756 mmHg 61%
    16:00 +29°C° 0 mm 2 mps 755 mmHg 62%
    17:00 +28°C° 0 mm 2 mps 755 mmHg 63%
    18:00 +27°C° 0 mm 2 mps 755 mmHg 69%
    19:00 +26°C° 0 mm 3 mps 755 mmHg 75%
    20:00 +25°C° 0 mm 3 mps 755 mmHg 82%
    21:00 +24°C° 0.1 mm 2 mps 755 mmHg 84%
    22:00 +24°C° 0.1 mm 2 mps 756 mmHg 87%
    23:00 +23°C° 0.1 mm 2 mps 756 mmHg 89%

    20 Diciembre, Jueves

    Tiempo Temperatura Precipitaciones Viento Presión Humedad
    00:00 +23°C° 0 mm 2 mps 755 mmHg 90%
    01:00 +23°C° 0 mm 1 mps 754 mmHg 91%
    02:00 +23°C° 0 mm 1 mps 754 mmHg 92%
    03:00 +22°C° 0.1 mm 1 mps 754 mmHg 93%
    04:00 +22°C° 0.1 mm 1 mps 754 mmHg 93%
    05:00 +22°C° 0.1 mm 1 mps 755 mmHg 93%
    06:00 +24°C° 0.2 mm 1 mps 755 mmHg 86%
    07:00 +25°C° 0.2 mm 1 mps 755 mmHg 79%
    08:00 +27°C° 0.2 mm 2 mps 755 mmHg 72%
    09:00 +29°C° 0 mm 2 mps 755 mmHg 65%
    10:00 +30°C° 0 mm 2 mps 755 mmHg 59%
    11:00 +31°C° 0 mm 2 mps 754 mmHg 53%
    12:00 +32°C° 0.1 mm 2 mps 754 mmHg 52%
    13:00 +32°C° 0.1 mm 2 mps 753 mmHg 50%
    14:00 +34°C° 0.1 mm 2 mps 753 mmHg 48%
    15:00 +33°C° 0.2 mm 3 mps 753 mmHg 51%
    16:00 +31°C° 0.2 mm 3 mps 753 mmHg 54%
    17:00 +32°C° 0.2 mm 4 mps 752 mmHg 57%
    18:00 +29°C° 0.7 mm 4 mps 753 mmHg 66%
    19:00 +27°C° 0.7 mm 3 mps 753 mmHg 74%
    20:00 +25°C° 0.7 mm 3 mps 753 mmHg 82%
    21:00 +25°C° 0.1 mm 3 mps 753 mmHg 83%
    22:00 +25°C° 0.1 mm 3 mps 753 mmHg 84%
    23:00 +25°C° 0.1 mm 3 mps 753 mmHg 85%

    21 Diciembre, Viernes

    Tiempo Temperatura Precipitaciones Viento Presión Humedad
    00:00 +25°C° 1.8 mm 2 mps 753 mmHg 84%
    01:00 +24°C° 1.8 mm 2 mps 752 mmHg 83%
    02:00 +24°C° 1.8 mm 2 mps 752 mmHg 82%
    03:00 +24°C° 0.1 mm 2 mps 752 mmHg 83%
    04:00 +23°C° 0.1 mm 2 mps 752 mmHg 84%
    05:00 +23°C° 0.1 mm 2 mps 752 mmHg 84%
    06:00 +24°C° 0.1 mm 3 mps 752 mmHg 79%
    07:00 +25°C° 0.1 mm 4 mps 752 mmHg 74%
    08:00 +26°C° 0.1 mm 4 mps 752 mmHg 69%
    09:00 +27°C° 0 mm 5 mps 752 mmHg 61%
    10:00 +29°C° 0 mm 5 mps 752 mmHg 52%
    11:00 +30°C° 0 mm 6 mps 752 mmHg 44%
    12:00 +30°C° 0 mm 6 mps 751 mmHg 42%
    13:00 +32°C° 0 mm 6 mps 751 mmHg 40%
    14:00 +33°C° 0 mm 6 mps 751 mmHg 39%
    15:00 +32°C° 0 mm 6 mps 751 mmHg 41%
    16:00 +32°C° 0 mm 6 mps 751 mmHg 42%
    17:00 +32°C° 0 mm 5 mps 751 mmHg 44%
    18:00 +29°C° 0 mm 5 mps 751 mmHg 49%
    19:00 +28°C° 0 mm 4 mps 752 mmHg 54%
    20:00 +27°C° 0 mm 3 mps 752 mmHg 58%
    21:00 +26°C° 0 mm 3 mps 752 mmHg 62%
    22:00 +25°C° 0 mm 3 mps 753 mmHg 65%
    23:00 +24°C° 0 mm 3 mps 753 mmHg 69%

    22 Diciembre, Sábado

    Tiempo Temperatura Precipitaciones Viento Presión Humedad
    00:00 +23°C° 0 mm 2 mps 753 mmHg 71%
    01:00 +23°C° 0 mm 2 mps 753 mmHg 74%
    02:00 +21°C° 0 mm 2 mps 753 mmHg 77%
    03:00 +22°C° 0 mm 1 mps 754 mmHg 77%
    04:00 +21°C° 0 mm 1 mps 754 mmHg 78%
    05:00 +21°C° 0 mm 1 mps 755 mmHg 79%
    06:00 +23°C° 0 mm 1 mps 755 mmHg 71%
    07:00 +25°C° 0 mm 1 mps 756 mmHg 64%
    08:00 +27°C° 0 mm 1 mps 756 mmHg 57%
    09:00 +29°C° 0 mm 1 mps 756 mmHg 50%
    10:00 +31°C° 0 mm 1 mps 756 mmHg 44%
    11:00 +33°C° 0 mm 1 mps 756 mmHg 37%
    12:00 +35°C° 0 mm 2 mps 755 mmHg 35%
    13:00 +35°C° 0 mm 2 mps 755 mmHg 32%
    14:00 +36°C° 0 mm 2 mps 755 mmHg 30%
    15:00 +35°C° 0 mm 3 mps 754 mmHg 33%
    16:00 +35°C° 0 mm 3 mps 754 mmHg 35%
    17:00 +34°C° 0 mm 3 mps 754 mmHg 38%
    18:00 +31°C° 0 mm 3 mps 755 mmHg 43%
    19:00 +29°C° 0 mm 3 mps 755 mmHg 48%
    20:00 +28°C° 0 mm 3 mps 756 mmHg 53%
    21:00 +27°C° 0.2 mm 4 mps 756 mmHg 55%
    22:00 +27°C° 0.2 mm 4 mps 756 mmHg 58%
    23:00 +26°C° 0.2 mm 4 mps 757 mmHg 61%
    Mostrar más